Regional Weather Roundup
Issued by NWS Kansas City/Pleasant Hill, MO

Home | Current Version | Previous Version | Text Only | Print | Product List | Glossary On
Versions: 1 2 3 4 5 6 7 8 9 10 11 12 13 14 15 16 17 18 19 20 21 22 23 24 25 26 27
000
ASUS43 KEAX 170410
RWREAX

WEATHER ROUNDUP FOR EASTERN KANSAS AND NORTHWEST MISSOURI
NATIONAL WEATHER SERVICE KANSAS CITY/PLEASANT HILL MO
1100 PM CDT WED AUG 16 2017

KSZ040-057-103>105-MOZ028-029-037-043-170500-
...KANSAS CITY METROPOLITAN AREA...

CITY           SKY/WX    TMP DP  RH WIND       PRES   REMARKS
K.C. INTL      CLOUDY    72  70  93 S7        29.83F
K.C. DOWNTOWN  CLOUDY    73  69  87 S13       29.83F
LEES SUMMIT    CLOUDY    69  67  93 SW10      29.86S
OLATHE - IXD   CLOUDY    68  67  96 S8        29.87S
OLATHE - OJC   CLOUDY    67  67 100 S8        29.86F
LAWRENCE       CLOUDY    72  72 100 SE7       29.84F

$$

MOZ001>008-011>017-020>025-030>033-038>040-044>046-053-054-170500-
...NORTHERN AND CENTRAL MISSOURI...

CITY           SKY/WX    TMP DP  RH WIND       PRES   REMARKS
ST. JOSEPH     FOG       72  72 100 W5        29.81F VSB 3/4
WARRENSBURG    CLOUDY    68  63  83 S9        29.83F
WHITEMAN AFB   LGT RAIN  68  68  99 SW13      29.84S
CLINTON        LGT RAIN  68  68 100 SW5       29.87S
SEDALIA        CLOUDY    69  69 100 S3        29.85S
WARSAW         NOT AVBL
CHILLICOTHE      N/A     73  72  96 SW3       29.80F
KIRKSVILLE     CLOUDY    76  74  93 S8        29.81F

$$

MOZ041-047>049-056>058-063>065-088>090-097-170500-
...EASTERN AND SOUTHERN MISSOURI...

CITY           SKY/WX    TMP DP  RH WIND       PRES   REMARKS
ST. LOUIS INTL CLOUDY    73  69  87 S14       29.90S
SPIRIT OF STL  RAIN      71  69  93 S9        29.89S FOG
COLUMBIA       LGT RAIN  70  69  97 S9G20     29.86F
JEFFERSON CITY LGT RAIN  72  70  93 S5        29.85F
ROLLA          HVY RAIN  67  66  97 W14G22    29.98R FOG
OSAGE BEACH    LGT RAIN  68  67  96 S9G17     29.92F
SPRINGFIELD    HVY RAIN  68  68 100 S8        29.99R FOG
BRANSON          N/A     77  73  88 CALM      29.97R
JOPLIN         LGT RAIN  70  69  97 S14       29.96R
WEST PLAINS    CLOUDY    80  72  76 S9        29.96F

$$

IAZ060-094-KSZ022-034>040-054-083-096-NEZ052-066-093-170500-
...KANSAS...SOUTHEAST NEBRASKA AND IOWA...

CITY           SKY/WX    TMP DP  RH WIND       PRES   REMARKS
TOPEKA         CLOUDY    74  68  81 SW6       29.84F
MANHATTAN      CLOUDY    70  68  93 S3        29.88R
EMPORIA        CLOUDY    71  70  96 S6        29.89S
CHANUTE        CLOUDY    71  69  93 S10       29.90R
WICHITA        CLOUDY    72  69  90 S5        29.91R
OMAHA          MOCLDY    71  64  78 NW10      29.84R
LINCOLN        PTCLDY    69  62  78 NW8       29.89R
FALLS CITY     CLOUDY    72  65  78 W8        29.83R
LAMONI         CLOUDY    71  69  93 SW6       29.78F
DES MOINES     CLOUDY    74  66  76 W12       29.75S

$$





USA.gov is the U.S. government's official web portal to all federal, state and local government web resources and services.